Location: Bremen
(53.0793°N, 8.8017°E)
Time: 04:33:57
(UTC+01:00)

Vanguard 1 Rocket - Pass Details

Date: 11 December 2021
Orbit: 651 x 4225 km, 34.3° (Epoch: 26 January)

Event Time Altitude Azimuth Distance (km) Brightness Sun altitude
Rises 08:31:02 0° 265° (W) 6,432 11.3 -0.5°
Reaches altitude 10° 08:39:30 10° 240° (WSW) 6,240 11.5 0.4°
Maximum altitude 08:45:54 12° 222° (SW) 6,520 11.8 1.1°
Drops below altitude 10° 08:53:08 10° 203° (SSW) 7,123 12.2 1.9°
Sets 09:05:25 0° 180° (S) 8,456 13.1 3.2°
